Time,TemperatureF,DewpointF,PressureIn,WindDirection,WindDirectionDegrees,WindSpeedMPH,WindSpeedGustMPH,Humidity,HourlyPrecipIn,Conditions,Clouds,dailyrainin,SoftwareType,DateUTC
2014-01-01 00:01:00,24.4,20.3,30.38,ENE,67,0.0,1.0,84,0.00,,,0.00,meteohub,2014-01-01 07:01:00,
2014-01-01 00:07:00,24.4,19.9,30.38,SE,146,1.0,2.0,83,0.00,,,0.00,meteohub,2014-01-01 07:07:00,
2014-01-01 00:12:00,24.3,20.1,30.37,South,170,0.0,2.0,84,0.00,,,0.00,meteohub,2014-01-01 07:12:00,
2014-01-01 00:17:00,24.3,19.8,30.36,SSE,167,0.0,2.0,83,0.00,,,0.00,meteohub,2014-01-01 07:17:00,
2014-01-01 00:22:00,24.3,19.8,30.36,SE,146,0.0,2.0,83,0.00,,,0.00,meteohub,2014-01-01 07:22:00,
2014-01-01 00:27:00,24.1,19.8,30.35,SW,229,1.0,2.0,83,0.00,,,0.00,meteohub,2014-01-01 07:27:00,
2014-01-01 00:32:00,24.4,20.7,30.36,NW,317,2.0,2.0,85,0.00,,,0.00,meteohub,2014-01-01 07:32:00,
2014-01-01 00:38:00,24.8,20.7,30.35,NNW,343,0.0,3.0,84,0.00,,,0.00,meteohub,2014-01-01 07:38:00,
2014-01-01 00:43:00,24.4,19.8,30.35,ESE,115,0.0,3.0,82,0.00,,,0.00,meteohub,2014-01-01 07:43:00,
2014-01-01 00:48:00,24.1,19.9,30.35,West,281,2.0,3.0,84,0.00,,,0.00,meteohub,2014-01-01 07:48:00,
2014-01-01 00:53:00,24.1,19.9,30.35,WNW,284,3.0,3.0,84,0.00,,,0.00,meteohub,2014-01-01 07:53:00,
2014-01-01 00:59:00,24.3,20.5,30.35,West,276,1.0,2.0,85,0.00,,,0.00,meteohub,2014-01-01 07:59:00,
2014-01-01 01:00:00,24.3,20.5,30.35,West,276,0.0,2.0,85,0.00,,,0.00,meteohub,2014-01-01 08:00:00,
2014-01-01 01:05:00,24.4,20.8,30.34,WSW,238,0.0,3.0,86,0.00,,,0.00,meteohub,2014-01-01 08:05:00,
2014-01-01 01:10:00,24.8,21.6,30.34,SSE,150,0.0,2.0,87,0.00,,,0.00,meteohub,2014-01-01 08:10:00,
2014-01-01 01:15:00,24.4,20.7,30.34,SSE,152,0.0,2.0,85,0.00,,,0.00,meteohub,2014-01-01 08:15:00,
2014-01-01 01:21:00,24.3,20.7,30.34,NW,319,2.0,2.0,86,0.00,,,0.00,meteohub,2014-01-01 08:21:00,
2014-01-01 01:26:00,24.4,20.8,30.34,WNW,290,1.0,3.0,86,0.00,,,0.00,meteohub,2014-01-01 08:26:00,
2014-01-01 01:31:00,24.4,20.8,30.34,West,281,0.0,3.0,86,0.00,,,0.00,meteohub,2014-01-01 08:31:00,
2014-01-01 01:33:00,24.4,21.2,30.33,West,281,0.0,3.0,87,0.00,,,0.00,meteohub,2014-01-01 08:33:00,
2014-01-01 01:38:00,24.4,21.2,30.33,SSE,158,2.0,3.0,87,0.00,,,0.00,meteohub,2014-01-01 08:38:00,
2014-01-01 01:43:00,24.4,20.8,30.33,SSE,155,1.0,3.0,86,0.00,,,0.00,meteohub,2014-01-01 08:43:00,
2014-01-01 01:48:00,24.3,21.0,30.33,SE,137,0.0,4.0,87,0.00,,,0.00,meteohub,2014-01-01 08:48:00,
2014-01-01 01:54:00,24.3,20.7,30.33,ESE,120,0.0,5.0,86,0.00,,,0.00,meteohub,2014-01-01 08:54:00,
2014-01-01 01:59:00,24.3,21.2,30.32,SSW,203,1.0,5.0,88,0.00,,,0.00,meteohub,2014-01-01 08:59:00,
2014-01-01 02:04:00,24.4,21.7,30.32,SSW,205,0.0,5.0,89,0.00,,,0.00,meteohub,2014-01-01 09:04:00,
2014-01-01 02:09:00,24.3,21.0,30.32,WNW,300,1.0,3.0,87,0.00,,,0.00,meteohub,2014-01-01 09:09:00,
2014-01-01 02:14:00,24.4,21.2,30.31,West,269,0.0,4.0,87,0.00,,,0.00,meteohub,2014-01-01 09:14:00,
2014-01-01 02:20:00,24.3,21.2,30.31,WSW,249,1.0,4.0,88,0.00,,,0.00,meteohub,2014-01-01 09:20:00,
2014-01-01 02:25:00,24.3,21.2,30.31,West,274,4.0,4.0,88,0.00,,,0.00,meteohub,2014-01-01 09:25:00,
2014-01-01 02:30:00,24.6,21.6,30.30,SSE,156,3.0,5.0,88,0.00,,,0.00,meteohub,2014-01-01 09:30:00,
2014-01-01 02:35:00,24.4,21.4,30.29,SE,134,2.0,5.0,88,0.00,,,0.00,meteohub,2014-01-01 09:35:00,
2014-01-01 02:41:00,24.3,21.7,30.29,SE,129,3.0,5.0,90,0.00,,,0.00,meteohub,2014-01-01 09:41:00,
2014-01-01 02:46:00,24.6,22.5,30.29,SSW,203,1.0,7.0,91,0.00,,,0.00,meteohub,2014-01-01 09:46:00,
2014-01-01 02:51:00,24.4,20.8,30.28,SSE,150,6.0,7.0,86,0.00,,,0.00,meteohub,2014-01-01 09:51:00,
2014-01-01 02:56:00,24.3,21.6,30.28,ESE,113,0.0,7.0,89,0.00,,,0.00,meteohub,2014-01-01 09:56:00,
2014-01-01 03:01:00,24.3,21.7,30.29,SW,225,1.0,7.0,90,0.00,,,0.00,meteohub,2014-01-01 10:01:00,
2014-01-01 03:07:00,24.4,21.9,30.28,SSE,155,4.0,6.0,90,0.00,,,0.00,meteohub,2014-01-01 10:07:00,
2014-01-01 03:12:00,25.3,22.6,30.28,WNW,290,2.0,6.0,89,0.00,,,0.00,meteohub,2014-01-01 10:12:00,
2014-01-01 03:17:00,25.5,21.9,30.28,ESE,122,1.0,10.0,86,0.00,,,0.00,meteohub,2014-01-01 10:17:00,
2014-01-01 03:22:00,24.3,20.7,30.28,SE,126,2.0,10.0,86,0.00,,,0.00,meteohub,2014-01-01 10:22:00,
2014-01-01 03:28:00,24.1,21.0,30.28,WNW,291,2.0,10.0,88,0.00,,,0.00,meteohub,2014-01-01 10:28:00,
2014-01-01 03:33:00,24.4,21.4,30.29,WSW,238,0.0,7.0,88,0.00,,,0.00,meteohub,2014-01-01 10:33:00,
2014-01-01 03:38:00,25.5,21.4,30.28,WNW,294,0.0,7.0,84,0.00,,,0.00,meteohub,2014-01-01 10:38:00,
2014-01-01 03:43:00,26.8,21.4,30.28,NNW,333,2.0,13.0,80,0.00,,,0.00,meteohub,2014-01-01 10:43:00,
2014-01-01 03:49:00,28.8,21.2,30.28,SSW,204,3.0,13.0,73,0.00,,,0.00,meteohub,2014-01-01 10:49:00,
2014-01-01 03:54:00,30.6,20.5,30.28,NNW,338,7.0,10.0,66,0.00,,,0.00,meteohub,2014-01-01 10:54:00,
2014-01-01 03:59:00,32.0,20.5,30.28,North,349,12.0,16.0,62,0.00,,,0.00,meteohub,2014-01-01 10:59:00,
2014-01-01 04:04:00,33.1,20.7,30.27,WNW,295,4.0,16.0,60,0.00,,,0.00,meteohub,2014-01-01 11:04:00,
2014-01-01 04:09:00,32.9,19.8,30.28,NW,306,10.0,16.0,58,0.00,,,0.00,meteohub,2014-01-01 11:09:00,
2014-01-01 04:15:00,33.4,19.4,30.27,West,278,5.0,17.0,56,0.00,,,0.00,meteohub,2014-01-01 11:15:00,
2014-01-01 04:20:00,33.1,19.9,30.27,WNW,300,1.0,17.0,58,0.00,,,0.00,meteohub,2014-01-01 11:20:00,
2014-01-01 04:25:00,32.5,20.1,30.27,West,273,2.0,17.0,60,0.00,,,0.00,meteohub,2014-01-01 11:25:00,
2014-01-01 04:30:00,32.4,19.6,30.27,SE,145,3.0,10.0,59,0.00,,,0.00,meteohub,2014-01-01 11:30:00,
2014-01-01 04:36:00,32.7,19.9,30.27,West,278,6.0,10.0,59,0.00,,,0.00,meteohub,2014-01-01 11:36:00,
2014-01-01 04:41:00,33.1,19.6,30.27,NNE,14,0.0,10.0,57,0.00,,,0.00,meteohub,2014-01-01 11:41:00,
2014-01-01 04:46:00,33.1,19.6,30.28,West,274,3.0,10.0,57,0.00,,,0.00,meteohub,2014-01-01 11:46:00,
2014-01-01 04:51:00,33.3,19.8,30.28,WSW,249,3.0,14.0,57,0.00,,,0.00,meteohub,2014-01-01 11:51:00,
2014-01-01 04:56:00,32.9,19.4,30.28,SE,129,2.0,14.0,57,0.00,,,0.00,meteohub,2014-01-01 11:56:00,
2014-01-01 05:02:00,32.9,19.4,30.28,SE,133,4.0,14.0,57,0.00,,,0.00,meteohub,2014-01-01 12:02:00,
2014-01-01 05:07:00,32.7,18.7,30.28,NNW,339,4.0,10.0,56,0.00,,,0.00,meteohub,2014-01-01 12:07:00,
2014-01-01 05:12:00,32.9,18.9,30.28,NE,42,2.0,12.0,56,0.00,,,0.00,meteohub,2014-01-01 12:12:00,
2014-01-01 05:17:00,32.7,19.2,30.28,NW,321,3.0,12.0,57,0.00,,,0.00,meteohub,2014-01-01 12:17:00,
2014-01-01 05:23:00,32.7,19.2,30.27,NE,37,4.0,16.0,57,0.00,,,0.00,meteohub,2014-01-01 12:23:00,
2014-01-01 05:28:00,32.2,19.4,30.27,NE,37,6.0,16.0,59,0.00,,,0.00,meteohub,2014-01-01 12:28:00,
2014-01-01 05:33:00,32.4,19.2,30.28,NE,42,10.0,16.0,58,0.00,,,0.00,meteohub,2014-01-01 12:33:00,
2014-01-01 05:38:00,32.7,19.2,30.28,WNW,300,6.0,19.0,57,0.00,,,0.00,meteohub,2014-01-01 12:38:00,
2014-01-01 05:43:00,33.1,19.6,30.29,East,86,4.0,19.0,57,0.00,,,0.00,meteohub,2014-01-01 12:43:00,
2014-01-01 05:49:00,32.7,19.6,30.29,NNE,23,4.0,19.0,58,0.00,,,0.00,meteohub,2014-01-01 12:49:00,
2014-01-01 05:54:00,32.7,19.2,30.29,NNE,30,4.0,18.0,57,0.00,,,0.00,meteohub,2014-01-01 12:54:00,
2014-01-01 05:59:00,32.5,19.4,30.29,North,351,3.0,13.0,58,0.00,,,0.00,meteohub,2014-01-01 12:59:00,
2014-01-01 06:04:00,32.2,20.3,30.30,North,4,4.0,10.0,61,0.00,,,0.00,meteohub,2014-01-01 13:04:00,
2014-01-01 06:10:00,31.6,20.8,30.30,North,5,7.0,24.0,64,0.00,,,0.00,meteohub,2014-01-01 13:10:00,
2014-01-01 06:15:00,31.5,21.0,30.30,NE,45,10.0,24.0,65,0.00,,,0.00,meteohub,2014-01-01 13:15:00,
2014-01-01 06:20:00,30.9,21.2,30.30,West,267,1.0,18.0,67,0.00,,,0.00,meteohub,2014-01-01 13:20:00,
2014-01-01 06:25:00,30.6,21.2,30.30,NNW,347,13.0,14.0,68,0.00,,,0.00,meteohub,2014-01-01 13:25:00,
2014-01-01 06:30:00,30.6,22.3,30.30,NNE,22,6.0,15.0,71,0.00,,,0.00,meteohub,2014-01-01 13:30:00,
2014-01-01 06:36:00,29.5,23.2,30.30,North,358,5.0,15.0,77,0.00,,,0.00,meteohub,2014-01-01 13:36:00,
2014-01-01 06:41:00,28.9,22.6,30.30,NNW,333,4.0,15.0,77,0.00,,,0.00,meteohub,2014-01-01 13:41:00,
2014-01-01 06:46:00,29.1,22.8,30.30,NNE,26,6.0,18.0,77,0.00,,,0.00,meteohub,2014-01-01 13:46:00,
2014-01-01 06:51:00,29.3,22.6,30.30,North,354,11.0,23.0,76,0.00,,,0.00,meteohub,2014-01-01 13:51:00,
2014-01-01 06:57:00,29.1,22.3,30.30,North,352,16.0,23.0,75,0.00,,,0.00,meteohub,2014-01-01 13:57:00,
2014-01-01 07:02:00,29.3,21.7,30.30,NNE,27,13.0,22.0,73,0.00,,,0.00,meteohub,2014-01-01 14:02:00,
2014-01-01 07:07:00,29.5,21.2,30.30,NNW,340,9.0,22.0,71,0.00,,,0.00,meteohub,2014-01-01 14:07:00,
2014-01-01 07:12:00,29.7,20.1,30.30,NNW,329,11.0,20.0,67,0.00,,,0.00,meteohub,2014-01-01 14:12:00,
2014-01-01 07:17:00,29.7,20.1,30.30,NNW,330,7.0,20.0,67,0.00,,,0.00,meteohub,2014-01-01 14:17:00,
2014-01-01 07:23:00,29.7,20.1,30.29,NNW,329,8.0,16.0,67,0.00,,,0.00,meteohub,2014-01-01 14:23:00,
2014-01-01 07:28:00,29.5,19.6,30.30,NNW,337,7.0,19.0,66,0.00,,,0.00,meteohub,2014-01-01 14:28:00,
2014-01-01 07:33:00,29.7,19.4,30.30,NNW,343,7.0,19.0,65,0.00,,,0.00,meteohub,2014-01-01 14:33:00,
2014-01-01 07:38:00,29.3,20.1,30.30,North,354,10.0,22.0,68,0.00,,,0.00,meteohub,2014-01-01 14:38:00,
2014-01-01 07:44:00,28.6,21.0,30.30,NNE,26,8.0,22.0,73,0.00,,,0.00,meteohub,2014-01-01 14:44:00,
2014-01-01 07:49:00,28.4,21.2,30.30,NNW,339,6.0,22.0,74,0.00,,,0.00,meteohub,2014-01-01 14:49:00,
2014-01-01 07:54:00,28.0,20.8,30.30,NNE,23,7.0,17.0,74,0.00,,,0.00,meteohub,2014-01-01 14:54:00,
2014-01-01 07:59:00,28.2,20.3,30.30,NNW,343,9.0,15.0,72,0.00,,,0.00,meteohub,2014-01-01 14:59:00,
2014-01-01 08:04:00,28.6,20.1,30.30,NNE,16,9.0,14.0,70,0.00,,,0.00,meteohub,2014-01-01 15:04:00,
2014-01-01 08:10:00,28.8,19.6,30.30,North,4,17.0,17.0,68,0.00,,,0.00,meteohub,2014-01-01 15:10:00,
2014-01-01 08:15:00,28.6,20.3,30.31,NW,308,7.0,17.0,71,0.00,,,0.00,meteohub,2014-01-01 15:15:00,
2014-01-01 08:20:00,28.6,20.1,30.31,NNE,14,5.0,17.0,70,0.00,,,0.00,meteohub,2014-01-01 15:20:00,
2014-01-01 08:25:00,28.6,19.8,30.31,NE,37,8.0,17.0,69,0.00,,,0.00,meteohub,2014-01-01 15:25:00,
2014-01-01 08:31:00,28.4,20.1,30.32,ENE,63,4.0,15.0,71,0.00,,,0.00,meteohub,2014-01-01 15:31:00,
2014-01-01 08:36:00,28.0,20.1,30.32,NE,49,3.0,15.0,72,0.00,,,0.00,meteohub,2014-01-01 15:36:00,
2014-01-01 08:41:00,28.2,20.1,30.32,NNE,28,7.0,16.0,71,0.00,,,0.00,meteohub,2014-01-01 15:41:00,
2014-01-01 08:46:00,28.2,19.8,30.33,NNE,14,14.0,16.0,70,0.00,,,0.00,meteohub,2014-01-01 15:46:00,
2014-01-01 08:51:00,28.6,19.8,30.33,NNE,30,14.0,17.0,69,0.00,,,0.00,meteohub,2014-01-01 15:51:00,
2014-01-01 08:57:00,28.6,20.1,30.34,North,0,12.0,20.0,70,0.00,,,0.00,meteohub,2014-01-01 15:57:00,
2014-01-01 09:02:00,28.8,19.2,30.34,North,5,9.0,20.0,67,0.00,,,0.00,meteohub,2014-01-01 16:02:00,
2014-01-01 09:07:00,28.8,18.9,30.34,NNE,27,5.0,20.0,66,0.00,,,0.00,meteohub,2014-01-01 16:07:00,
2014-01-01 09:12:00,28.9,18.7,30.35,North,1,11.0,19.0,65,0.00,,,0.00,meteohub,2014-01-01 16:12:00,
2014-01-01 09:18:00,28.9,18.3,30.35,North,356,9.0,16.0,64,0.00,,,0.00,meteohub,2014-01-01 16:18:00,
2014-01-01 09:23:00,29.5,18.5,30.35,NNW,335,10.0,18.0,63,0.00,,,0.00,meteohub,2014-01-01 16:23:00,
2014-01-01 09:28:00,29.5,18.5,30.35,NE,39,14.0,19.0,63,0.00,,,0.00,meteohub,2014-01-01 16:28:00,
2014-01-01 09:33:00,29.5,18.1,30.34,North,8,4.0,23.0,62,0.00,,,0.00,meteohub,2014-01-01 16:33:00,
2014-01-01 09:39:00,29.7,17.8,30.35,North,349,5.0,23.0,61,0.00,,,0.00,meteohub,2014-01-01 16:39:00,
2014-01-01 09:44:00,29.7,17.8,30.35,NNE,29,8.0,23.0,61,0.00,,,0.00,meteohub,2014-01-01 16:44:00,
2014-01-01 09:49:00,29.8,18.0,30.35,NNE,25,6.0,13.0,61,0.00,,,0.00,meteohub,2014-01-01 16:49:00,
2014-01-01 09:54:00,30.2,17.6,30.35,NNE,22,15.0,15.0,59,0.00,,,0.00,meteohub,2014-01-01 16:54:00,
2014-01-01 09:59:00,30.6,16.7,30.35,WNW,302,6.0,12.0,56,0.00,,,0.00,meteohub,2014-01-01 16:59:00,
2014-01-01 10:05:00,30.7,16.9,30.35,North,359,16.0,16.0,56,0.00,,,0.00,meteohub,2014-01-01 17:05:00,
2014-01-01 10:10:00,30.9,16.7,30.35,NE,40,8.0,17.0,55,0.00,,,0.00,meteohub,2014-01-01 17:10:00,
2014-01-01 10:15:00,31.3,15.6,30.35,North,8,10.0,18.0,52,0.00,,,0.00,meteohub,2014-01-01 17:15:00,
2014-01-01 10:20:00,31.6,16.0,30.35,NNE,32,2.0,18.0,52,0.00,,,0.00,meteohub,2014-01-01 17:20:00,
2014-01-01 10:26:00,32.0,15.4,30.35,NE,49,3.0,18.0,50,0.00,,,0.00,meteohub,2014-01-01 17:26:00,
2014-01-01 10:31:00,32.2,15.1,30.35,NNE,15,5.0,12.0,49,0.00,,,0.00,meteohub,2014-01-01 17:31:00,
2014-01-01 10:36:00,32.4,15.3,30.34,ENE,65,2.0,11.0,49,0.00,,,0.00,meteohub,2014-01-01 17:36:00,
2014-01-01 10:41:00,32.5,14.0,30.34,North,6,1.0,12.0,46,0.00,,,0.00,meteohub,2014-01-01 17:41:00,
2014-01-01 10:47:00,32.7,13.3,30.34,NE,42,9.0,12.0,44,0.00,,,0.00,meteohub,2014-01-01 17:47:00,
2014-01-01 10:52:00,32.5,13.1,30.34,NNW,345,5.0,11.0,44,0.00,,,0.00,meteohub,2014-01-01 17:52:00,
2014-01-01 10:57:00,33.1,13.5,30.34,WNW,295,4.0,11.0,44,0.00,,,0.00,meteohub,2014-01-01 17:57:00,
2014-01-01 11:02:00,33.3,12.0,30.33,NNW,342,2.0,11.0,41,0.00,,,0.00,meteohub,2014-01-01 18:02:00,
2014-01-01 11:07:00,32.9,11.8,30.33,ENE,59,5.0,10.0,41,0.00,,,0.00,meteohub,2014-01-01 18:07:00,
2014-01-01 11:13:00,33.3,12.6,30.32,NE,39,4.0,14.0,42,0.00,,,0.00,meteohub,2014-01-01 18:13:00,
2014-01-01 11:18:00,33.6,11.8,30.32,NNW,333,3.0,14.0,40,0.00,,,0.00,meteohub,2014-01-01 18:18:00,
2014-01-01 11:23:00,33.4,11.7,30.32,NNE,18,5.0,14.0,40,0.00,,,0.00,meteohub,2014-01-01 18:23:00,
2014-01-01 11:28:00,33.6,10.8,30.32,NNW,336,3.0,10.0,38,0.00,,,0.00,meteohub,2014-01-01 18:28:00,
2014-01-01 11:34:00,33.6,10.0,30.32,NE,40,8.0,11.0,37,0.00,,,0.00,meteohub,2014-01-01 18:34:00,
2014-01-01 11:39:00,33.4,10.6,30.31,NNE,22,11.0,11.0,38,0.00,,,0.00,meteohub,2014-01-01 18:39:00,
2014-01-01 11:44:00,33.6,10.8,30.31,NE,53,8.0,16.0,38,0.00,,,0.00,meteohub,2014-01-01 18:44:00,
2014-01-01 11:49:00,33.4,10.6,30.30,NNE,27,6.0,16.0,38,0.00,,,0.00,meteohub,2014-01-01 18:49:00,
2014-01-01 11:55:00,33.6,10.8,30.31,NNW,348,14.0,17.0,38,0.00,,,0.00,meteohub,2014-01-01 18:55:00,
2014-01-01 12:00:00,33.8,8.4,30.30,North,5,2.0,25.0,34,0.00,,,0.00,meteohub,2014-01-01 19:00:00,
2014-01-01 12:05:00,34.0,9.9,30.30,NNE,30,8.0,25.0,36,0.00,,,0.00,meteohub,2014-01-01 19:05:00,
2014-01-01 12:10:00,34.2,8.8,30.29,NE,46,13.0,25.0,34,0.00,,,0.00,meteohub,2014-01-01 19:10:00,
2014-01-01 12:16:00,34.2,9.3,30.30,North,352,13.0,17.0,35,0.00,,,0.00,meteohub,2014-01-01 19:16:00,
2014-01-01 12:21:00,34.3,7.5,30.29,NNW,338,8.0,17.0,32,0.00,,,0.00,meteohub,2014-01-01 19:21:00,
2014-01-01 12:26:00,34.5,8.4,30.29,North,7,10.0,23.0,33,0.00,,,0.00,meteohub,2014-01-01 19:26:00,
2014-01-01 12:31:00,34.5,7.0,30.29,NW,318,8.0,23.0,31,0.00,,,0.00,meteohub,2014-01-01 19:31:00,
2014-01-01 12:36:00,34.7,6.4,30.29,NE,44,6.0,23.0,30,0.00,,,0.00,meteohub,2014-01-01 19:36:00,
2014-01-01 12:42:00,34.7,5.7,30.28,NNE,13,15.0,24.0,29,0.00,,,0.00,meteohub,2014-01-01 19:42:00,
2014-01-01 12:47:00,34.9,4.3,30.29,NW,315,8.0,25.0,27,0.00,,,0.00,meteohub,2014-01-01 19:47:00,
2014-01-01 12:52:00,35.1,5.2,30.28,NNW,348,6.0,25.0,28,0.00,,,0.00,meteohub,2014-01-01 19:52:00,
2014-01-01 12:57:00,35.1,3.6,30.28,NNW,333,6.0,25.0,26,0.00,,,0.00,meteohub,2014-01-01 19:57:00,
2014-01-01 13:03:00,34.9,3.4,30.27,North,354,18.0,18.0,26,0.00,,,0.00,meteohub,2014-01-01 20:03:00,
2014-01-01 13:08:00,35.1,2.8,30.28,North,350,15.0,23.0,25,0.00,,,0.00,meteohub,2014-01-01 20:08:00,
2014-01-01 13:13:00,34.9,0.9,30.27,NNW,343,12.0,23.0,23,0.00,,,0.00,meteohub,2014-01-01 20:13:00,
2014-01-01 13:18:00,34.9,3.4,30.27,NNE,19,12.0,22.0,26,0.00,,,0.00,meteohub,2014-01-01 20:18:00,
2014-01-01 13:24:00,34.9,5.0,30.27,WNW,295,3.0,22.0,28,0.00,,,0.00,meteohub,2014-01-01 20:24:00,
2014-01-01 13:29:00,35.2,4.6,30.27,NE,39,20.0,23.0,27,0.00,,,0.00,meteohub,2014-01-01 20:29:00,
2014-01-01 13:34:00,34.9,2.7,30.27,NNW,341,10.0,23.0,25,0.00,,,0.00,meteohub,2014-01-01 20:34:00,
2014-01-01 13:39:00,34.7,3.4,30.27,NNE,12,18.0,27.0,26,0.00,,,0.00,meteohub,2014-01-01 20:39:00,
2014-01-01 13:45:00,34.7,3.4,30.27,NNE,29,18.0,27.0,26,0.00,,,0.00,meteohub,2014-01-01 20:45:00,
2014-01-01 13:50:00,34.5,4.8,30.27,North,8,12.0,21.0,28,0.00,,,0.00,meteohub,2014-01-01 20:50:00,
2014-01-01 13:55:00,34.3,4.6,30.26,NNW,340,11.0,20.0,28,0.00,,,0.00,meteohub,2014-01-01 20:55:00,
2014-01-01 14:00:00,34.3,3.7,30.26,North,352,11.0,19.0,27,0.00,,,0.00,meteohub,2014-01-01 21:00:00,
2014-01-01 14:06:00,34.2,4.5,30.26,NNE,25,14.0,20.0,28,0.00,,,0.00,meteohub,2014-01-01 21:06:00,
2014-01-01 14:11:00,34.3,3.7,30.26,NNW,329,11.0,20.0,27,0.00,,,0.00,meteohub,2014-01-01 21:11:00,
2014-01-01 14:16:00,34.3,5.4,30.26,NW,325,3.0,20.0,29,0.00,,,0.00,meteohub,2014-01-01 21:16:00,
2014-01-01 14:21:00,34.5,5.5,30.26,NW,312,6.0,17.0,29,0.00,,,0.00,meteohub,2014-01-01 21:21:00,
2014-01-01 14:26:00,34.3,4.6,30.25,NW,321,3.0,14.0,28,0.00,,,0.00,meteohub,2014-01-01 21:26:00,
2014-01-01 14:32:00,34.3,5.4,30.26,NNE,32,8.0,20.0,29,0.00,,,0.00,meteohub,2014-01-01 21:32:00,
2014-01-01 14:37:00,34.2,5.2,30.26,NNW,335,8.0,20.0,29,0.00,,,0.00,meteohub,2014-01-01 21:37:00,
2014-01-01 14:42:00,34.0,5.7,30.27,NE,37,14.0,20.0,30,0.00,,,0.00,meteohub,2014-01-01 21:42:00,
2014-01-01 14:48:00,34.0,6.4,30.27,North,10,18.0,18.0,31,0.00,,,0.00,meteohub,2014-01-01 21:48:00,
2014-01-01 14:53:00,33.8,7.0,30.27,NNE,23,5.0,16.0,32,0.00,,,0.00,meteohub,2014-01-01 21:53:00,
2014-01-01 14:58:00,33.8,4.8,30.27,NE,36,2.0,27.0,29,0.00,,,0.00,meteohub,2014-01-01 21:58:00,
2014-01-01 15:03:00,33.8,4.8,30.27,NE,47,6.0,27.0,29,0.00,,,0.00,meteohub,2014-01-01 22:03:00,
2014-01-01 15:09:00,34.0,4.3,30.28,SSE,150,0.0,17.0,28,0.00,,,0.00,meteohub,2014-01-01 22:09:00,
2014-01-01 15:14:00,33.4,3.7,30.28,WSW,251,4.0,17.0,28,0.00,,,0.00,meteohub,2014-01-01 22:14:00,
2014-01-01 15:19:00,33.4,3.0,30.28,NNE,27,4.0,17.0,27,0.00,,,0.00,meteohub,2014-01-01 22:19:00,
2014-01-01 15:24:00,33.3,1.2,30.29,NNE,32,7.0,11.0,25,0.00,,,0.00,meteohub,2014-01-01 22:24:00,
2014-01-01 15:29:00,33.3,2.1,30.28,NNW,347,4.0,19.0,26,0.00,,,0.00,meteohub,2014-01-01 22:29:00,
2014-01-01 15:35:00,32.7,0.7,30.29,West,269,3.0,19.0,25,0.00,,,0.00,meteohub,2014-01-01 22:35:00,
2014-01-01 15:40:00,32.7,0.7,30.29,NW,323,0.0,14.0,25,0.00,,,0.00,meteohub,2014-01-01 22:40:00,
2014-01-01 15:45:00,32.0,3.4,30.29,WSW,240,1.0,14.0,29,0.00,,,0.00,meteohub,2014-01-01 22:45:00,
2014-01-01 15:50:00,31.1,1.8,30.29,NNW,329,0.0,13.0,28,0.00,,,0.00,meteohub,2014-01-01 22:50:00,
2014-01-01 15:56:00,31.6,-0.2,30.29,NNW,335,5.0,19.0,25,0.00,,,0.00,meteohub,2014-01-01 22:56:00,
2014-01-01 16:01:00,31.8,-0.9,30.29,North,11,8.0,19.0,24,0.00,,,0.00,meteohub,2014-01-01 23:01:00,
2014-01-01 16:06:00,31.6,-0.2,30.30,NNW,345,6.0,19.0,25,0.00,,,0.00,meteohub,2014-01-01 23:06:00,
2014-01-01 16:11:00,31.3,-0.4,30.30,North,6,18.0,18.0,25,0.00,,,0.00,meteohub,2014-01-01 23:11:00,
2014-01-01 16:17:00,31.3,1.2,30.30,North,9,9.0,18.0,27,0.00,,,0.00,meteohub,2014-01-01 23:17:00,
2014-01-01 16:22:00,30.7,2.3,30.31,North,5,9.0,18.0,29,0.00,,,0.00,meteohub,2014-01-01 23:22:00,
2014-01-01 16:27:00,30.6,2.1,30.30,NNE,18,9.0,19.0,29,0.00,,,0.00,meteohub,2014-01-01 23:27:00,
2014-01-01 16:32:00,30.2,1.8,30.31,NNW,347,4.0,19.0,29,0.00,,,0.00,meteohub,2014-01-01 23:32:00,
2014-01-01 16:38:00,30.0,2.3,30.31,NNE,14,9.0,16.0,30,0.00,,,0.00,meteohub,2014-01-01 23:38:00,
2014-01-01 16:43:00,29.7,3.4,30.32,NE,45,3.0,18.0,32,0.00,,,0.00,meteohub,2014-01-01 23:43:00,
2014-01-01 16:48:00,29.7,3.4,30.32,West,276,3.0,18.0,32,0.00,,,0.00,meteohub,2014-01-01 23:48:00,
2014-01-01 16:54:00,27.9,3.7,30.32,NNE,12,2.0,18.0,35,0.00,,,0.00,meteohub,2014-01-01 23:54:00,
2014-01-01 16:59:00,27.3,5.5,30.33,West,276,4.0,14.0,39,0.00,,,0.00,meteohub,2014-01-01 23:59:00,
2014-01-01 17:04:00,25.5,7.2,30.32,WSW,255,1.0,9.0,45,0.00,,,0.00,meteohub,2014-01-02 00:04:00,
2014-01-01 17:09:00,24.4,6.1,30.33,WSW,256,4.0,8.0,45,0.00,,,0.00,meteohub,2014-01-02 00:09:00,
2014-01-01 17:15:00,23.9,6.6,30.33,WSW,245,0.0,5.0,47,0.00,,,0.00,meteohub,2014-01-02 00:15:00,
2014-01-01 17:20:00,24.4,7.2,30.34,West,280,2.0,5.0,47,0.00,,,0.00,meteohub,2014-01-02 00:20:00,
2014-01-01 17:25:00,24.1,7.7,30.34,West,269,2.0,5.0,49,0.00,,,0.00,meteohub,2014-01-02 00:25:00,
2014-01-01 17:31:00,23.5,7.2,30.34,West,267,3.0,4.0,49,0.00,,,0.00,meteohub,2014-01-02 00:31:00,
2014-01-01 17:36:00,23.5,7.2,30.35,West,264,2.0,5.0,49,0.00,,,0.00,meteohub,2014-01-02 00:36:00,
2014-01-01 17:41:00,22.8,7.0,30.35,West,269,2.0,5.0,50,0.00,,,0.00,meteohub,2014-01-02 00:41:00,
2014-01-01 17:46:00,22.5,7.0,30.35,West,260,1.0,5.0,51,0.00,,,0.00,meteohub,2014-01-02 00:46:00,
2014-01-01 17:52:00,21.7,8.1,30.35,West,281,2.0,4.0,55,0.00,,,0.00,meteohub,2014-01-02 00:52:00,
2014-01-01 17:57:00,21.6,7.9,30.35,WSW,251,2.0,4.0,55,0.00,,,0.00,meteohub,2014-01-02 00:57:00,
2014-01-01 18:02:00,21.6,6.6,30.36,SSW,206,4.0,6.0,52,0.00,,,0.00,meteohub,2014-01-02 01:02:00,
2014-01-01 18:07:00,21.9,7.0,30.36,WSW,250,2.0,6.0,52,0.00,,,0.00,meteohub,2014-01-02 01:07:00,
2014-01-01 18:13:00,21.9,6.6,30.36,WSW,248,3.0,6.0,51,0.00,,,0.00,meteohub,2014-01-02 01:13:00,
2014-01-01 18:18:00,21.6,7.2,30.36,West,269,3.0,7.0,53,0.00,,,0.00,meteohub,2014-01-02 01:18:00,
2014-01-01 18:23:00,21.2,6.8,30.37,WSW,255,2.0,7.0,53,0.00,,,0.00,meteohub,2014-01-02 01:23:00,
2014-01-01 18:28:00,20.5,7.7,30.37,WSW,255,2.0,7.0,57,0.00,,,0.00,meteohub,2014-01-02 01:28:00,
2014-01-01 18:34:00,20.7,7.0,30.37,West,276,3.0,4.0,55,0.00,,,0.00,meteohub,2014-01-02 01:34:00,
2014-01-01 18:39:00,21.0,6.6,30.38,West,271,3.0,5.0,53,0.00,,,0.00,meteohub,2014-01-02 01:39:00,
2014-01-01 18:44:00,20.7,7.0,30.38,WSW,249,1.0,5.0,55,0.00,,,0.00,meteohub,2014-01-02 01:44:00,
2014-01-01 18:50:00,20.1,7.3,30.38,WSW,253,0.0,5.0,57,0.00,,,0.00,meteohub,2014-01-02 01:50:00,
2014-01-01 18:55:00,20.1,7.0,30.38,West,270,3.0,4.0,56,0.00,,,0.00,meteohub,2014-01-02 01:55:00,
2014-01-01 19:00:00,19.6,7.5,30.38,WSW,255,1.0,4.0,59,0.00,,,0.00,meteohub,2014-01-02 02:00:00,
2014-01-01 19:06:00,19.2,8.1,30.38,West,259,2.0,4.0,61,0.00,,,0.00,meteohub,2014-01-02 02:06:00,
2014-01-01 19:11:00,19.2,6.8,30.38,West,276,2.0,4.0,58,0.00,,,0.00,meteohub,2014-01-02 02:11:00,
2014-01-01 19:16:00,18.9,6.1,30.38,NW,304,4.0,4.0,57,0.00,,,0.00,meteohub,2014-01-02 02:16:00,
2014-01-01 19:21:00,18.9,7.0,30.39,West,271,2.0,5.0,59,0.00,,,0.00,meteohub,2014-01-02 02:21:00,
2014-01-01 19:27:00,18.7,7.2,30.38,WSW,256,0.0,5.0,60,0.00,,,0.00,meteohub,2014-01-02 02:27:00,
2014-01-01 19:32:00,18.7,7.2,30.38,West,271,3.0,5.0,60,0.00,,,0.00,meteohub,2014-01-02 02:32:00,
2014-01-01 19:37:00,18.5,6.6,30.38,West,281,3.0,3.0,59,0.00,,,0.00,meteohub,2014-01-02 02:37:00,
2014-01-01 19:43:00,18.3,6.4,30.38,NW,323,1.0,3.0,59,0.00,,,0.00,meteohub,2014-01-02 02:43:00,
2014-01-01 19:48:00,18.0,6.8,30.38,West,260,1.0,4.0,61,0.00,,,0.00,meteohub,2014-01-02 02:48:00,
2014-01-01 19:53:00,18.1,6.6,30.38,WSW,256,1.0,4.0,60,0.00,,,0.00,meteohub,2014-01-02 02:53:00,
2014-01-01 19:58:00,17.8,6.3,30.38,WSW,252,1.0,4.0,60,0.00,,,0.00,meteohub,2014-01-02 02:58:00,
2014-01-01 20:04:00,17.2,6.1,30.38,SW,216,2.0,3.0,61,0.00,,,0.00,meteohub,2014-01-02 03:04:00,
2014-01-01 20:09:00,17.6,5.4,30.38,SSW,202,7.0,7.0,58,0.00,,,0.00,meteohub,2014-01-02 03:09:00,
2014-01-01 20:14:00,18.3,5.2,30.39,SSE,166,3.0,10.0,56,0.00,,,0.00,meteohub,2014-01-02 03:14:00,
2014-01-01 20:20:00,18.5,5.0,30.40,WSW,245,3.0,10.0,55,0.00,,,0.00,meteohub,2014-01-02 03:20:00,
2014-01-01 20:25:00,18.5,5.4,30.40,South,179,1.0,7.0,56,0.00,,,0.00,meteohub,2014-01-02 03:25:00,
2014-01-01 20:30:00,19.0,5.5,30.40,SW,226,4.0,9.0,55,0.00,,,0.00,meteohub,2014-01-02 03:30:00,
2014-01-01 20:35:00,18.7,5.5,30.41,NNW,329,1.0,10.0,56,0.00,,,0.00,meteohub,2014-01-02 03:35:00,
2014-01-01 20:41:00,18.0,5.7,30.42,WSW,250,2.0,10.0,58,0.00,,,0.00,meteohub,2014-01-02 03:41:00,
2014-01-01 20:46:00,17.4,5.2,30.42,West,278,2.0,6.0,58,0.00,,,0.00,meteohub,2014-01-02 03:46:00,
2014-01-01 20:51:00,17.2,5.0,30.42,East,96,0.0,4.0,58,0.00,,,0.00,meteohub,2014-01-02 03:51:00,
2014-01-01 20:56:00,16.7,4.5,30.43,WNW,290,2.0,4.0,58,0.00,,,0.00,meteohub,2014-01-02 03:56:00,
2014-01-01 21:02:00,16.0,5.2,30.43,SW,214,1.0,5.0,62,0.00,,,0.00,meteohub,2014-01-02 04:02:00,
2014-01-01 21:07:00,16.3,4.8,30.43,NW,304,4.0,5.0,60,0.00,,,0.00,meteohub,2014-01-02 04:07:00,
2014-01-01 21:12:00,16.9,4.3,30.43,South,169,1.0,5.0,57,0.00,,,0.00,meteohub,2014-01-02 04:12:00,
2014-01-01 21:17:00,16.5,4.6,30.43,WSW,246,2.0,5.0,59,0.00,,,0.00,meteohub,2014-01-02 04:17:00,
2014-01-01 21:23:00,16.2,4.3,30.43,West,265,1.0,5.0,59,0.00,,,0.00,meteohub,2014-01-02 04:23:00,
2014-01-01 21:28:00,15.6,4.6,30.43,SW,233,2.0,3.0,61,0.00,,,0.00,meteohub,2014-01-02 04:28:00,
2014-01-01 21:33:00,14.7,4.1,30.43,SW,228,0.0,3.0,62,0.00,,,0.00,meteohub,2014-01-02 04:33:00,
2014-01-01 21:38:00,14.7,4.1,30.43,SW,236,0.0,3.0,62,0.00,,,0.00,meteohub,2014-01-02 04:38:00,
2014-01-01 21:44:00,14.7,3.7,30.44,SW,234,1.0,3.0,61,0.00,,,0.00,meteohub,2014-01-02 04:44:00,
2014-01-01 21:49:00,14.2,3.9,30.43,WSW,255,1.0,3.0,63,0.00,,,0.00,meteohub,2014-01-02 04:49:00,
2014-01-01 21:54:00,13.6,3.7,30.44,SW,221,0.0,3.0,64,0.00,,,0.00,meteohub,2014-01-02 04:54:00,
2014-01-01 21:59:00,13.8,3.6,30.44,WNW,284,0.0,2.0,63,0.00,,,0.00,meteohub,2014-01-02 04:59:00,
2014-01-01 22:01:00,13.8,3.6,30.44,West,263,0.0,3.0,63,0.00,,,0.00,meteohub,2014-01-02 05:01:00,
2014-01-01 22:02:00,13.8,3.6,30.44,West,263,0.0,3.0,63,0.00,,,0.00,meteohub,2014-01-02 05:02:00,
2014-01-01 22:03:00,13.6,3.4,30.44,West,261,1.0,3.0,63,0.00,,,0.00,meteohub,2014-01-02 05:03:00,
2014-01-01 22:05:00,13.5,3.6,30.44,WSW,251,1.0,3.0,64,0.00,,,0.00,meteohub,2014-01-02 05:05:00,
2014-01-01 22:10:00,12.7,3.2,30.44,WSW,251,1.0,3.0,65,0.00,,,0.00,meteohub,2014-01-02 05:10:00,
2014-01-01 22:15:00,12.4,3.2,30.44,West,276,0.0,2.0,66,0.00,,,0.00,meteohub,2014-01-02 05:15:00,
2014-01-01 22:20:00,12.0,2.8,30.45,WSW,238,0.0,3.0,66,0.00,,,0.00,meteohub,2014-01-02 05:20:00,
2014-01-01 22:26:00,12.2,3.0,30.45,NW,314,4.0,4.0,66,0.00,,,0.00,meteohub,2014-01-02 05:26:00,
2014-01-01 22:31:00,12.6,3.0,30.45,WSW,256,1.0,5.0,65,0.00,,,0.00,meteohub,2014-01-02 05:31:00,
2014-01-01 22:36:00,12.4,2.8,30.45,West,280,3.0,5.0,65,0.00,,,0.00,meteohub,2014-01-02 05:36:00,
2014-01-01 22:41:00,12.0,2.8,30.46,WSW,238,1.0,5.0,66,0.00,,,0.00,meteohub,2014-01-02 05:41:00,
2014-01-01 22:46:00,11.8,2.7,30.47,WSW,248,0.0,3.0,66,0.00,,,0.00,meteohub,2014-01-02 05:46:00,
2014-01-01 22:52:00,11.8,3.0,30.47,West,266,2.0,3.0,67,0.00,,,0.00,meteohub,2014-01-02 05:52:00,
2014-01-01 22:57:00,11.7,2.8,30.47,West,263,2.0,3.0,67,0.00,,,0.00,meteohub,2014-01-02 05:57:00,
2014-01-01 23:02:00,11.7,2.8,30.47,WSW,246,0.0,3.0,67,0.00,,,0.00,meteohub,2014-01-02 06:02:00,
2014-01-01 23:07:00,11.3,2.8,30.48,WSW,250,2.0,3.0,68,0.00,,,0.00,meteohub,2014-01-02 06:07:00,
2014-01-01 23:13:00,11.1,2.7,30.48,WSW,249,1.0,3.0,68,0.00,,,0.00,meteohub,2014-01-02 06:13:00,
2014-01-01 23:18:00,10.9,2.5,30.48,WSW,239,0.0,2.0,68,0.00,,,0.00,meteohub,2014-01-02 06:18:00,
2014-01-01 23:23:00,10.9,2.5,30.48,West,277,1.0,2.0,68,0.00,,,0.00,meteohub,2014-01-02 06:23:00,
2014-01-01 23:28:00,10.8,2.3,30.48,West,266,2.0,2.0,68,0.00,,,0.00,meteohub,2014-01-02 06:28:00,
2014-01-01 23:34:00,10.6,2.5,30.48,WSW,257,0.0,3.0,69,0.00,,,0.00,meteohub,2014-01-02 06:34:00,
2014-01-01 23:39:00,10.4,2.3,30.48,WSW,240,0.0,3.0,69,0.00,,,0.00,meteohub,2014-01-02 06:39:00,
2014-01-01 23:44:00,10.2,2.1,30.48,WSW,243,1.0,2.0,69,0.00,,,0.00,meteohub,2014-01-02 06:44:00,
2014-01-01 23:49:00,10.2,2.1,30.48,West,259,0.0,1.0,69,0.00,,,0.00,meteohub,2014-01-02 06:49:00,
2014-01-01 23:55:00,9.9,2.1,30.48,West,262,0.0,1.0,70,0.00,,,0.00,meteohub,2014-01-02 06:55:00,